KK4XZ Weather Reports


Display with metric or nautical units.
time (UTC)temp
F
wind
direction
speed
MPH
gust
MPH
rain 1hr
in
rain 24hr
in
rain mn
in
humidity
%
barometer
mb
20260506164523 76 221 3.0 9.0 0.00 0.00 0.00 69 1016.1
20260506163518 76 202 4.0 9.0 0.00 0.00 0.00 67 1016.4
20260506162534 77 217 4.0 9.0 0.00 0.00 0.00 66 1016.6
20260506161528 77 198 4.0 9.0 0.00 0.00 0.00 65 1016.6
20260506160524 76 224 3.0 9.0 0.00 0.00 0.00 66 1016.7
20260506155519 77 208 4.0 8.0 0.00 0.00 0.00 65 1016.7
20260506154534 76 191 4.0 10.0 0.00 0.00 0.00 65 1016.8
20260506153529 76 197 3.0 6.0 0.00 0.00 0.00 66 1016.7
20260506152524 75 192 5.0 9.0 0.00 0.00 0.00 66 1016.7
20260506151519 76 207 4.0 13.0 0.00 0.00 0.00 62 1016.5
20260506150534 77 231 3.0 6.0 0.00 0.00 0.00 62 1016.7
20260506145529 76 223 3.0 6.0 0.00 0.00 0.00 64 1016.8
20260506144525 75 212 4.0 9.0 0.00 0.00 0.00 67 1016.8
20260506143520 76 203 3.0 10.0 0.00 0.00 0.00 64 1016.7
20260506142536 75 204 3.0 7.0 0.00 0.00 0.00 67 1016.6
20260506141531 75 207 3.0 8.0 0.00 0.00 0.00 70 1016.8
20260506140526 73 180 4.0 10.0 0.00 0.00 0.00 73 1016.7
20260506135521 74 191 3.0 6.0 0.00 0.00 0.00 71 1016.7
20260506134516 73 179 3.0 8.0 0.00 0.00 0.00 74 1016.5
20260506133531 73 186 4.0 8.0 0.00 0.00 0.00 74 1016.6
20260506132526 72 233 4.0 8.0 0.00 0.00 0.00 75 1016.5
20260506131522 72 188 3.0 7.0 0.00 0.00 0.00 76 1016.3
20260506130517 72 180 3.0 9.0 0.00 0.00 0.00 76 1016.3
20260506125533 71 169 4.0 10.0 0.00 0.00 0.00 77 1016.3
20260506124527 71 237 2.0 5.0 0.00 0.00 0.00 79 1016.2
20260506123522 70 197 3.0 6.0 0.00 0.00 0.00 81 1016.3
20260506122517 70 194 2.0 5.0 0.00 0.00 0.00 82 1016.2
20260506121533 70 203 2.0 6.0 0.00 0.00 0.00 85 1016.3
20260506120528 69 159 2.0 5.0 0.00 0.00 0.00 88 1016.2
20260506115523 68 192 3.0 6.0 0.00 0.00 0.00 90 1016.2
20260506114518 68 150 1.0 4.0 0.00 0.00 0.00 92 1016.1
20260506113533 67 136 2.0 3.0 0.00 0.00 0.00 92 1016.1
20260506112529 67 186 1.0 3.0 0.00 0.00 0.00 92 1015.9
20260506111524 67 154 0.0 3.0 0.00 0.00 0.00 92 1015.6
20260506110519 67 165 2.0 4.0 0.00 0.00 0.00 92 1015.6
20260506105534 67 177 2.0 4.0 0.00 0.00 0.00 92 1015.6
20260506104530 67 128 1.0 4.0 0.00 0.00 0.00 91 1015.9
20260506103525 67 164 1.0 3.0 0.00 0.00 0.00 90 1015.9
20260506102520 67 169 2.0 4.0 0.00 0.00 0.00 90 1015.6
20260506101535 67 175 3.0 6.0 0.00 0.00 0.00 89 1015.6
20260506100530 67 183 2.0 5.0 0.00 0.00 0.00 89 1015.7
20260506095525 67 97 2.0 4.0 0.00 0.00 0.00 89 1015.6
20260506094521 67 227 1.0 4.0 0.00 0.00 0.00 90 1015.6
20260506093536 67 172 2.0 4.0 0.00 0.00 0.00 89 1015.6
20260506092531 67 178 3.0 6.0 0.00 0.00 0.00 89 1015.3
20260506091526 67 182 2.0 4.0 0.00 0.00 0.00 89 1015.5
20260506090521 67 178 2.0 5.0 0.00 0.00 0.00 89 1015.4
20260506085516 67 158 2.0 4.0 0.00 0.00 0.00 88 1015.3
20260506084531 67 175 2.0 5.0 0.00 0.00 0.00 88 1015.3
20260506083526 67 170 3.0 5.0 0.00 0.00 0.00 88 1015.3
20260506082523 67 179 2.0 5.0 0.00 0.00 0.00 88 1015.3
20260506081517 67 181 2.0 4.0 0.00 0.00 0.00 87 1015.2
20260506080532 67 171 1.0 4.0 0.00 0.00 0.00 87 1015.5
20260506073517 66 170 0.0 2.0 0.00 0.00 0.00 88 1015.4
20260506072533 67 181 1.0 3.0 0.00 0.00 0.00 88 1015.2
20260506071528 67 177 2.0 4.0 0.00 0.00 0.00 87 1015.1
20260506070523 67 184 2.0 5.0 0.00 0.00 0.00 87 1015.2
20260506061518 66 155 1.0 2.0 0.00 0.00 0.00 88 1016.0
20260506060533 66 170 1.0 2.0 0.00 0.00 0.00 88 1016.4
20260506050524 66 183 1.0 5.0 0.00 0.00 0.00 82 1016.4
20260506044534 66 176 1.0 3.0 0.00 0.00 0.00 81 1016.5
20260506043530 67 182 2.0 4.0 0.00 0.00 0.00 81 1016.6
20260506042524 66 185 1.0 2.0 0.00 0.00 0.00 81 1016.9
20260506041519 66 171 1.0 2.0 0.00 0.00 0.00 82 1016.9
20260506040534 66 170 1.0 2.0 0.00 0.00 0.00 82 1017.0
20260506035530 66 176 1.0 3.0 0.00 0.00 0.00 83 1017.1
20260506034525 66 172 1.0 4.0 0.00 0.00 0.00 84 1017.1
20260506033520 65 173 1.0 2.0 0.00 0.00 0.00 85 1017.2
20260506032535 66 155 0.0 1.0 0.00 0.00 0.00 82 1017.4
20260506031530 66 159 1.0 2.0 0.00 0.00 0.00 81 1017.2
20260506030525 67 172 1.0 2.0 0.00 0.00 0.00 80 1017.2
20260506025520 67 168 1.0 3.0 0.00 0.00 0.00 78 1017.2
20260506024536 67 181 1.0 3.0 0.00 0.00 0.00 77 1017.3
20260506023530 67 176 2.0 3.0 0.00 0.00 0.00 77 1017.3
20260506022525 67 190 2.0 4.0 0.00 0.00 0.00 76 1017.3
20260506021521 67 190 1.0 3.0 0.00 0.00 0.00 77 1017.2
20260506020516 67 173 2.0 4.0 0.00 0.00 0.00 77 1017.0
20260506015531 67 185 2.0 4.0 0.00 0.00 0.00 77 1017.0
20260506014526 67 190 2.0 4.0 0.00 0.00 0.00 77 1016.9
20260506013521 67 195 2.0 4.0 0.00 0.00 0.00 76 1017.1
20260506012516 67 185 2.0 4.0 0.00 0.00 0.00 76 1016.9
20260506011532 68 190 2.0 4.0 0.00 0.00 0.00 76 1016.9
20260506010527 68 177 3.0 4.0 0.00 0.00 0.00 75 1017.0
20260506005522 68 186 3.0 5.0 0.00 0.00 0.00 74 1017.0
20260506004517 68 182 3.0 5.0 0.00 0.00 0.00 73 1017.0
20260506003532 68 203 2.0 5.0 0.00 0.00 0.00 74 1017.1
20260506002527 68 185 2.0 5.0 0.00 0.00 0.00 74 1017.0
20260506001523 68 200 2.0 4.0 0.00 0.00 0.00 72 1016.8
20260506000518 68 194 2.0 6.0 0.00 0.00 0.00 73 1016.9
20260505235534 69 198 2.0 4.0 0.00 0.00 0.00 72 1016.8
20260505234528 69 185 2.0 5.0 0.00 0.00 0.00 71 1016.9
20260505233523 69 185 2.0 4.0 0.00 0.00 0.00 71 1016.8
20260505232517 70 199 2.0 6.0 0.00 0.00 0.00 71 1016.8
20260505231532 70 197 2.0 4.0 0.00 0.00 0.00 70 1016.9
20260505230528 70 188 3.0 5.0 0.00 0.00 0.00 68 1016.9
20260505225523 70 206 3.0 5.0 0.00 0.00 0.00 68 1017.0
20260505224518 71 195 3.0 9.0 0.00 0.00 0.00 68 1017.0
20260505223533 70 195 3.0 5.0 0.00 0.00 0.00 69 1016.9
20260505222528 71 186 3.0 9.0 0.00 0.00 0.00 69 1016.9
20260505221523 71 197 3.0 5.0 0.00 0.00 0.00 70 1017.1
20260505220519 72 190 3.0 7.0 0.00 0.00 0.00 67 1017.0
20260505215534 72 192 3.0 5.0 0.00 0.00 0.00 69 1017.0
20260505214529 72 184 3.0 6.0 0.00 0.00 0.00 68 1016.9
20260505213524 72 199 3.0 7.0 0.00 0.00 0.00 68 1017.0
20260505212519 73 193 4.0 7.0 0.00 0.00 0.00 66 1016.8
20260505211534 73 195 3.0 12.0 0.00 0.00 0.00 64 1017.1
20260505210530 74 203 4.0 7.0 0.00 0.00 0.00 62 1017.1
20260505205525 73 199 4.0 9.0 0.00 0.00 0.00 62 1017.1
20260505204520 74 212 4.0 8.0 0.00 0.00 0.00 61 1017.0
20260505203535 75 216 4.0 9.0 0.00 0.00 0.00 60 1017.0
20260505202530 74 208 3.0 6.0 0.00 0.00 0.00 61 1016.9
20260505201525 75 198 4.0 8.0 0.00 0.00 0.00 59 1016.9
20260505200521 74 207 4.0 7.0 0.00 0.00 0.00 59 1017.1
20260505195537 76 175 2.0 6.0 0.00 0.00 0.00 57 1017.3
20260505194531 75 204 3.0 8.0 0.00 0.00 0.00 58 1017.5
20260505193526 75 202 5.0 13.0 0.00 0.00 0.00 57 1017.8
20260505192521 75 215 3.0 6.0 0.00 0.00 0.00 58 1017.8
20260505191516 75 217 3.0 5.0 0.00 0.00 0.00 56 1017.8
20260505190532 75 204 4.0 10.0 0.00 0.00 0.00 58 1017.9
20260505185527 76 244 3.0 6.0 0.00 0.00 0.00 58 1017.8
20260505184522 76 218 4.0 10.0 0.00 0.00 0.00 58 1017.7
20260505183517 76 217 4.0 7.0 0.00 0.00 0.00 58 1018.0
20260505182533 74 199 3.0 8.0 0.00 0.00 0.00 61 1018.1
20260505181529 74 196 4.0 9.0 0.00 0.00 0.00 59 1018.2
20260505180523 75 212 4.0 8.0 0.00 0.00 0.00 60 1018.1
20260505175517 74 226 3.0 6.0 0.00 0.00 0.00 62 1018.3
20260505174533 74 190 4.0 9.0 0.00 0.00 0.00 60 1018.4
20260505173528 75 202 4.0 8.0 0.00 0.00 0.00 58 1018.2
20260505172523 74 200 3.0 8.0 0.00 0.00 0.00 57 1018.5
20260505171518 75 216 3.0 6.0 0.00 0.00 0.00 57 1018.5
20260505170534 75 196 4.0 8.0 0.00 0.00 0.00 56 1018.7
20260505165529 75 219 3.0 7.0 0.00 0.00 0.00 57 1018.6